TimeEST,TemperatureF,Dew PointF,Humidity,Sea Level PressureIn,VisibilityMPH,Wind Direction,Wind SpeedMPH,Gust SpeedMPH,PrecipitationIn,Events,Conditions,WindDirDegrees,DateUTC
12:00 AM,37.4,30.2,75,29.85,10.0,East,5.8,-,N/A,,Overcast,80,2013-03-06 05:00:00
12:20 AM,37.4,32.0,81,29.84,10.0,ENE,10.4,18.4,N/A,Rain,Light Rain,70,2013-03-06 05:20:00
12:40 AM,35.6,32.0,87,29.82,7.0,ENE,9.2,-,N/A,Rain,Light Rain,70,2013-03-06 05:40:00
1:00 AM,33.8,32.0,93,29.82,5.0,ENE,8.1,-,N/A,Rain,Light Rain,70,2013-03-06 06:00:00
1:20 AM,32.0,32.0,100,29.81,3.0,ENE,6.9,-,0.02,,Overcast,60,2013-03-06 06:20:00
1:40 AM,32.0,32.0,100,29.79,2.0,NE,6.9,-,0.03,Snow,Light Snow,50,2013-03-06 06:40:00
2:00 AM,32.0,32.0,100,29.77,1.2,NE,8.1,-,N/A,Snow,Light Snow,40,2013-03-06 07:00:00
2:20 AM,32.0,32.0,100,29.76,1.5,NE,9.2,-,0.02,Snow,Light Snow,40,2013-03-06 07:20:00
2:40 AM,32.0,32.0,100,29.76,1.8,NE,6.9,-,0.03,Snow,Light Snow,40,2013-03-06 07:40:00
3:00 AM,32.0,32.0,100,29.75,1.5,NE,5.8,-,N/A,Snow,Light Snow,50,2013-03-06 08:00:00
3:20 AM,32.0,32.0,100,29.75,1.5,NNE,5.8,-,0.02,Snow,Light Snow,30,2013-03-06 08:20:00
3:40 AM,32.0,32.0,100,29.74,1.8,NNE,6.9,-,0.04,Snow,Light Snow,20,2013-03-06 08:40:00
4:00 AM,32.0,32.0,100,29.73,1.2,North,9.2,-,N/A,Snow,Light Snow,10,2013-03-06 09:00:00
4:20 AM,32.0,32.0,100,29.72,1.2,North,10.4,-,0.02,Snow,Light Snow,10,2013-03-06 09:20:00
4:40 AM,32.0,32.0,100,29.71,1.8,NNE,12.7,-,0.04,Snow,Light Snow,20,2013-03-06 09:40:00
5:00 AM,32.0,32.0,100,29.71,1.8,NNE,11.5,-,N/A,Snow,Light Snow,20,2013-03-06 10:00:00
5:20 AM,32.0,32.0,100,29.72,3.0,NNE,11.5,-,0.02,Snow,Light Snow,20,2013-03-06 10:20:00
5:40 AM,32.0,32.0,100,29.72,1.8,NNE,11.5,-,0.04,Snow,Light Snow,20,2013-03-06 10:40:00
5:45 AM,32.0,32.0,100,29.72,1.5,NNE,11.5,-,0.05,Snow,Light Snow,20,2013-03-06 10:45:00
7:45 AM,32.0,32.0,100,29.71,0.5,NNE,11.5,-,N/A,Snow,Snow,30,2013-03-06 12:45:00
7:59 AM,33.8,33.8,100,29.72,1.0,NNE,13.8,20.7,N/A,Snow,Snow,30,2013-03-06 12:59:00
8:50 AM,33.8,33.8,100,29.73,0.8,NNE,15.0,23.0,N/A,Snow,Snow,20,2013-03-06 13:50:00
9:50 AM,33.8,33.8,100,29.73,1.0,NNE,18.4,25.3,N/A,Snow,Snow,30,2013-03-06 14:50:00
10:50 AM,33.8,33.8,100,29.74,1.0,NNE,18.4,25.3,N/A,Snow,Snow,30,2013-03-06 15:50:00
11:59 AM,35.6,35.6,100,29.77,2.0,NNE,23.0,27.6,N/A,Snow,Snow,30,2013-03-06 16:59:00
12:52 PM,35.6,35.6,100,29.78,3.0,NNE,26.5,34.5,N/A,Snow,Snow,20,2013-03-06 17:52:00
1:45 PM,35.6,35.6,100,29.79,5.0,NNE,25.3,34.5,N/A,Rain,Rain,20,2013-03-06 18:45:00
2:45 PM,35.6,35.6,100,29.84,5.0,NNE,21.9,34.5,N/A,Rain,Rain,20,2013-03-06 19:45:00
3:55 PM,37.4,37.4,100,29.88,7.0,North,15.0,24.2,N/A,,Overcast,10,2013-03-06 20:55:00
4:57 PM,37.4,37.4,100,29.93,10.0,North,13.8,20.7,N/A,Rain,Light Rain,10,2013-03-06 21:57:00
5:45 PM,37.4,37.4,100,29.95,10.0,NNE,6.9,-,N/A,Rain,Light Rain,20,2013-03-06 22:45:00
6:50 PM,37.4,37.4,100,29.99,10.0,NE,6.9,-,N/A,,Overcast,40,2013-03-06 23:50:00
7:52 PM,37.4,37.4,100,30.01,10.0,NNE,4.6,-,N/A,,Overcast,30,2013-03-07 00:52:00
8:05 PM,35.6,35.6,100,30.01,10.0,North,4.6,-,N/A,,Overcast,10,2013-03-07 01:05:00
8:25 PM,35.6,35.6,100,30.01,10.0,Calm,Calm,-,N/A,,Overcast,0,2013-03-07 01:25:00
8:45 PM,35.6,35.6,100,30.01,10.0,Calm,Calm,-,N/A,,Overcast,0,2013-03-07 01:45:00
9:05 PM,35.6,35.6,100,30.01,10.0,North,3.5,-,N/A,,Overcast,10,2013-03-07 02:05:00
9:25 PM,37.4,32.0,81,30.01,10.0,North,10.4,-,N/A,,Mostly Cloudy,360,2013-03-07 02:25:00
9:45 PM,37.4,32.0,81,30.01,10.0,North,10.4,-,N/A,,Scattered Clouds,350,2013-03-07 02:45:00
10:05 PM,37.4,32.0,81,30.01,10.0,NNW,8.1,-,N/A,,Clear,340,2013-03-07 03:05:00
10:25 PM,37.4,32.0,81,30.02,10.0,NNW,8.1,-,N/A,,Clear,340,2013-03-07 03:25:00
10:45 PM,35.6,32.0,87,30.02,10.0,NNW,6.9,-,N/A,,Clear,340,2013-03-07 03:45:00
11:05 PM,35.6,32.0,87,30.03,10.0,NNW,4.6,-,N/A,,Clear,340,2013-03-07 04:05:00
11:25 PM,35.6,32.0,87,30.04,10.0,NNW,6.9,-,N/A,,Clear,330,2013-03-07 04:25:00
11:45 PM,35.6,32.0,87,30.04,10.0,North,5.8,-,N/A,,Clear,350,2013-03-07 04:45:00